FW1587 Weather Reports


time (UTC)temp
C
wind
direction
speed
KPH
gust
KPH
rain 1hr
cm
rain 24hr
cm
rain mn
cm
humidity
%
barometer
mb
20260507181515 12 5 0.0 6.4 0.00 0.05 0.05 61 1012.1
20260507180013 12 27 4.8 12.9 0.00 0.05 0.05 63 1011.9
20260507174513 12 20 9.7 12.9 0.00 0.05 0.05 62 1011.8
20260507173010 13 40 6.4 9.7 0.00 0.05 0.05 62 1011.8
20260507171506 13 30 6.4 9.7 0.00 0.05 0.05 61 1011.7
20260507170003 13 45 4.8 9.7 0.00 0.05 0.05 62 1011.6
20260507164606 13 40 4.8 12.9 0.00 0.05 0.05 62 1011.5
20260507163106 13 13 6.4 14.5 0.00 0.05 0.05 62 1011.5
20260507161555 13 50 1.6 6.4 0.00 0.05 0.05 62 1011.6
20260507160052 13 60 4.8 12.9 0.00 0.05 0.05 62 1011.7
20260507154547 13 27 4.8 9.7 0.00 0.05 0.05 62 1011.7
20260507153045 13 45 3.2 14.5 0.00 0.05 0.05 62 1011.7
20260507151540 13 32 4.8 14.5 0.00 0.05 0.05 62 1011.7
20260507150038 13 28 6.4 9.7 0.00 0.05 0.05 62 1011.8
20260507144534 13 40 6.4 17.7 0.00 0.05 0.05 61 1011.8
20260507143028 13 45 9.7 19.3 0.00 0.05 0.05 61 1011.8
20260507141525 12 45 9.7 16.1 0.00 0.05 0.05 57 1011.9
20260507140021 12 40 8.0 17.7 0.00 0.05 0.05 58 1011.9
20260507134517 13 33 11.3 17.7 0.00 0.05 0.05 55 1012.0
20260507133013 13 40 3.2 16.1 0.00 0.05 0.05 55 1012.1
20260507131516 13 68 11.3 22.5 0.00 0.05 0.05 52 1012.2
20260507130004 13 76 9.7 22.5 0.00 0.05 0.05 53 1012.2
20260507124603 13 14 8.0 17.7 0.00 0.33 0.05 47 1012.3
20260507123055 13 40 14.5 20.9 0.00 0.33 0.05 39 1012.2
20260507121552 12 45 11.3 20.9 0.00 0.33 0.05 39 1012.2
20260507120048 13 28 16.1 20.9 0.00 0.33 0.05 58 1012.2
20260507114546 13 228 1.6 11.3 0.00 0.64 0.05 60 1012.2
20260507113039 13 220 1.6 14.5 0.00 0.64 0.05 62 1012.4
20260507111537 12 225 1.6 14.5 0.00 0.64 0.05 58 1012.5
20260507110032 12 240 1.6 11.3 0.00 0.64 0.05 53 1012.5
20260507104528 12 208 3.2 16.1 0.00 0.69 0.05 40 1012.7
20260507103029 12 10 6.4 14.5 0.00 0.69 0.05 19 1012.9
20260507101520 11 329 0.0 3.2 0.00 0.69 0.05 14 1012.9
20260507100019 11 326 1.6 11.3 0.00 0.69 0.05 16 1013.1
20260507094512 11 243 1.6 6.4 0.00 0.69 0.05 3 1013.0
20260507093006 10 240 3.2 9.7 0.03 0.69 0.05 1 1013.1
20260507091606 10 40 4.8 14.5 0.03 0.69 0.05 1 1013.0
20260507090058 10 96 1.6 9.7 0.03 0.69 0.05 1 1012.8
20260507084554 8 287 1.6 11.3 0.05 0.69 0.05 1 1012.7
20260507083050 8 164 0.0 9.7 0.03 0.66 0.03 1 1012.7
20260507081547 8 230 0.0 8.0 0.03 0.66 0.03 1 1012.7
20260507080042 8 243 1.6 9.7 0.03 0.66 0.03 1 1012.6
20260507074539 8 287 1.6 12.9 0.00 0.64 0.00 1 1012.5
20260507073034 8 229 1.6 9.7 0.00 0.64 0.00 1 1012.5
20260507071558 8 329 0.0 6.4 0.00 0.64 0.00 1 1012.3
20260507070032 8 231 1.6 11.3 0.00 0.64 0.00 1 1012.3
20260507064523 8 172 1.6 4.8 0.00 0.64 0.00 1 1012.1
20260507063019 8 68 0.0 4.8 0.00 0.64 0.00 1 1012.1
20260507061517 7 216 0.0 1.6 0.00 0.64 0.00 1 1012.0
20260507060010 7 192 0.0 8.0 0.00 0.64 0.00 1 1011.9
20260507054506 7 249 0.0 9.7 0.00 0.64 0.00 1 1011.8
20260507053003 7 347 1.6 6.4 0.00 0.64 0.00 1 1011.6
20260507051607 7 215 0.0 3.2 0.00 0.64 0.00 1 1011.4
20260507050057 7 264 0.0 11.3 0.00 0.64 0.00 1 1011.3
20260507044556 7 156 0.0 11.3 0.00 0.64 0.00 1 1011.1
20260507043051 7 260 0.0 9.7 0.00 0.64 0.00 1 1010.9
20260507041546 7 218 0.0 8.0 0.00 0.64 0.00 1 1010.9
20260507040040 7 203 0.0 4.8 0.00 0.64 0.00 1 1010.9
20260507034538 7 80 0.0 3.2 0.00 0.64 0.00 1 1010.7
20260507033039 7 241 0.0 6.4 0.00 0.64 0.00 1 1010.7
20260507031530 7 286 0.0 3.2 0.00 0.64 0.00 1 1010.5
20260507030030 7 189 0.0 4.8 0.00 0.64 0.00 1 1010.4
20260507024530 7 220 0.0 6.4 0.00 0.64 0.00 1 1010.4
20260507023027 7 278 1.6 4.8 0.00 0.64 0.00 1 1010.5
20260507021521 7 302 0.0 9.7 0.00 0.64 0.00 1 1010.4
20260507020021 7 249 6.4 16.1 0.00 0.64 0.00 1 1010.3
20260507014514 7 208 4.8 14.5 0.00 0.64 0.00 1 1010.0
20260507013009 7 208 1.6 12.9 0.00 0.64 0.00 1 1009.9
20260507011506 7 200 4.8 9.7 0.00 0.64 0.00 1 1009.9
20260507010003 7 349 1.6 11.3 0.00 0.64 0.00 1 1009.7
20260507004613 7 268 3.2 16.1 0.00 0.64 0.00 1 1009.7
20260507003055 7 273 4.8 12.9 0.00 0.64 0.00 1 1009.7
20260507001555 7 197 1.6 12.9 0.00 0.64 0.00 1 1009.7
20260507000048 7 12 1.6 9.7 0.00 0.64 0.00 1 1009.6
20260506234544 6 212 0.0 12.9 0.00 0.64 0.00 1 1009.6
20260506233040 6 223 1.6 9.7 0.00 0.64 0.00 1 1009.6
20260506231535 6 243 3.2 8.0 0.00 0.64 0.00 1 1009.4
20260506230031 7 250 0.0 1.6 0.00 0.64 0.00 1 1009.4
20260506224527 7 243 0.0 3.2 0.00 0.64 0.00 1 1009.4
20260506223023 7 231 1.6 4.8 0.00 0.64 0.00 1 1009.4
20260506221519 7 318 0.0 6.4 0.00 0.64 0.00 1 1009.3
20260506220029 7 242 0.0 3.2 0.00 0.64 0.00 1 1009.3
20260506214510 7 208 1.6 6.4 0.00 0.64 0.64 1 1009.3
20260506213007 7 195 0.0 11.3 0.00 0.64 0.64 1 1009.3
20260506211508 7 229 3.2 8.0 0.00 0.64 0.64 1 1009.4
20260506204600 6 248 0.0 0.0 0.00 0.64 0.64 1 1009.2
20260506203053 6 262 0.0 0.0 0.00 0.64 0.64 1 1009.2
20260506201549 6 231 0.0 3.2 0.00 0.64 0.64 1 1009.1
20260506200049 7 207 3.2 8.0 0.00 0.64 0.64 1 1009.1
20260506194543 7 216 3.2 9.7 0.00 0.64 0.64 1 1008.7
20260506193038 7 243 1.6 12.9 0.00 0.64 0.64 1 1008.4
20260506191534 7 247 1.6 6.4 0.00 0.64 0.64 1 1008.2
20260506190030 7 268 1.6 11.3 0.00 0.64 0.64 1 1008.0
20260506184525 7 220 1.6 12.9 0.00 0.64 0.64 1 1008.0
20260506183022 7 276 1.6 6.4 0.00 0.64 0.64 1 1007.8